Social login voor leden:
METAR EBOS 261020Z 03007KT 360V060 6000 FEW015 18/13 Q1022 NOSIG
TAF EBOS 260500Z 2606/2712 10004KT 2500 BR NSC PROB30 TEMPO 2606/2608 0800 BCFG VV001 BECMG 2608/2610 8000 NSW TEMPO 2702/2706 4000 BR

Iedereen is welkom in het clubhuis op onze opendeurdagen op zondag 27 augustus 2017
en zondag 24 september 2017, telkens tussen 14 en 18 uur!

 

NZVC is de eerste Belgische vliegclub met een erkenning als 'Approved Training Organisation (ATO)'

Sinds 3 maart 2015 is de Noordzee Vliegclub Oostende erkend door de Europese Unie en de Belgian Civil Aviation Authority als Approved Training Organisation (ATO). Hierbij zijn we de eerste vliegclub in België die voldoet aan de nieuwste en strengste Europese normen inzake organisatie, kwaliteit en veiligheid bij de opleiding tot Privaat Piloot (PPL).

 

Opleiding Piloot
Meevliegen
Visit Us
Agenda
Opleiding Piloot
Doopvluchten
Visit Us
Volgende activiteit
Noordzee Vliegclub - Nieuwpoortsesteenweg 947 8400 Oostende - Tel 059 30 04 79 - Dit e-mailadres wordt beveiligd tegen spambots. JavaScript dient ingeschakeld te zijn om het te bekijken.

 - Copyright 2017 ©